Location: Cambridge (historical)
(38.6883°N, 119.0140°W)
Time: 17:28:05
(UTC+00:00)

Cosmos 1689 Rocket - Pass Details

Date: 29 October 2020
Orbit: 360 x 376 km, 97.5° (Epoch: 22 November)

Event Time Altitude Azimuth Distance (km) Brightness Sun altitude
Rises 13:16:41 0° 169° (S) 2,226 6.2 -13.0°
Reaches altitude 10° 13:18:37 10° 171° (S) 1,376 5.1 -12.6°
Maximum altitude 13:21:33 78° 258° (WSW) 386 1.9 -12.0°
Drops below altitude 10° 13:24:29 10° 345° (NNW) 1,378 4.6 -11.5°
Sets 13:26:26 0° 347° (NNW) 2,228 5.7 -11.1°
